Vorticity
3 7 9 6 4 7 6 3 6 9 11 16 17 12 7 7 7 8 12 14 14 7 7 10 14 9 8 8 7 6 7 7 6 6 6 7 9 14 15 13 18 7 6 10 15
6 7 8 10 6 7 8 8 7 5 7 11 20 15 11 8 6 7 13 10 15 12 6 9 11 11 10 9 9 7 8 8 8 9 8 7 10 11 11 12 18 18 -9 11 12
7 8 7 7 9 8 8 7 8 8 7 10 16 17 15 11 10 8 10 13 13 13 10 9 6 9 9 10 9 8 7 8 8 8 10 10 7 9 12 11 12 14 21 13 4
8 6 8 7 7 8 11 8 6 6 7 10 13 15 19 20 14 11 5 14 11 11 11 11 9 3 9 9 10 10 8 7 8 10 11 11 12 9 10 12 15 14 16 17 23
4 5 9 4 10 5 5 8 2 8 6 7 9 13 10 10 14 11 6 9 5 6 11 13 14 11 6 8 10 10 9 9 9 7 10 8 9 10 9 9 9 11 11 14 17
6 4 1 10 7 6 5 8 3 10 4 6 6 7 11 12 12 9 6 9 4 5 7 7 6 6 7 8 8 9 8 8 9 7 10 8 7 6 7 8 7 7 7 7 8
6 5 5 5 7 7 6 9 5 4 8 5 3 5 9 7 13 12 9 11 10 3 6 6 7 9 9 8 7 6 5 5 5 7 6 6 9 13 11 9 10 7 7 7 7
8 6 5 3 7 6 6 6 9 6 9 4 8 5 4 9 7 13 13 8 9 11 5 5 5 4 5 5 9 10 11 7 7 3 4 4 3 2 2 2 3 6 5 5 6
9 9 5 6 4 7 5 3 5 9 7 8 7 5 3 5 8 7 11 14 11 9 9 8 6 5 9 7 8 4 6 9 10 9 8 9 9 6 4 4 4 2 2 2 4
7 9 6 5 7 8 7 6 6 9 4 6 7 8 6 3 5 5 5 7 13 11 9 8 8 7 8 8 10 8 7 7 7 8 10 6 8 7 9 10 10 10 9 6 6
7 11 9 5 5 6 7 5 7 7 6 2 7 8 3 8 5 6 2 5 6 9 10 10 9 9 9 7 8 10 10 9 7 6 9 6 5 5 3 5 9 7 6 7 6
8 8 11 10 3 5 7 6 6 5 9 5 4 11 4 12 5 4 5 2 3 5 9 8 11 9 9 7 5 4 4 8 9 8 5 5 4 7 13 12 10 9 10 8 6
8 5 9 7 7 6 3 8 8 7 12 15 5 11 6 11 9 5 5 5 3 1 5 8 10 8 11 10 7 5 7 6 4 3 3 4 5 7 8 12 12 11 10 11 8
6 8 7 4 5 8 4 4 8 9 4 5 8 2 7 9 8 9 7 4 5 6 5 6 5 8 9 11 13 12 7 4 5 5 5 6 3 6 16 12 9 15 13 11 8
5 5 6 9 7 9 9 6 6 8 7 3 5 3 8 6 12 8 8 9 5 5 7 5 7 8 11 10 9 12 12 12 10 10 11 9 5 3 16 12 12 8 10 9 5
5 6 10 10 5 9 9 4 6 8 9 10 3 5 9 5 8 9 7 9 7 7 7 8 9 11 6 8 9 10 11 10 10 11 12 10 4 8 6 10 6 11 8 7 5
5 5 6 8 5 7 7 5 7 7 9 2 5 6 9 5 7 11 4 8 6 6 9 5 10 11 8 10 9 10 8 9 11 10 12 13 9 5 6 15 6 8 11 13 3
7 7 4 5 6 8 5 6 5 11 6 9 7 7 7 8 6 10 7 6 7 5 4 5 7 5 9 9 10 8 9 8 10 9 8 13 10 5 10 15 7 8 12 12 7
7 7 4 5 5 7 4 7 6 7 8 10 10 7 7 8 9 10 11 8 9 8 5 8 5 7 8 5 9 7 10 8 9 9 12 12 14 10 13 8 6 9 6 11 5
3 4 4 3 6 5 6 8 7 6 9 9 9 12 9 8 10 9 15 7 8 8 8 7 5 7 9 8 10 11 10 9 12 9 10 10 17 12 10 10 2 9 4 17 13
10 8 8 6 5 6 8 8 9 9 10 10 7 11 8 7 7 9 10 6 6 9 4 7 7 7 8 10 7 10 8 12 11 7 5 12 16 10 10 4 1 15 8 5 15
10 8 8 7 10 10 10 12 9 5 9 9 8 9 9 8 5 11 10 10 6 8 8 7 7 3 7 8 6 11 11 13 10 9 8 8 12 19 6 2 7 11 7 19 11
7 9 7 10 6 7 12 10 10 6 4 11 11 9 11 9 5 10 10 12 9 5 6 7 7 7 5 8 7 7 11 12 9 8 12 9 8 13 11 -1 15 1 2 5 3
9 7 5 5 8 10 9 7 6 8 9 10 10 9 10 7 7 9 7 12 10 9 7 9 6 3 6 7 9 13 15 14 11 8 9 11 11 29 9 5 2 7 -1 5 -1
11 9 7 5 9 9 9 8 9 9 9 11 10 11 9 8 9 8 10 11 10 7 9 9 6 4 5 9 13 11 11 8 14 17 4 10 8 9 15 18 9 18 5 9 12
4 9 12 10 10 4 6 4 4 3 7 10 11 11 8 9 10 10 11 8 10 8 9 6 7 7 7 11 12 11 12 14 11 9 12 11 14 11 11 6 2 -3 15 7 7
6 5 10 9 9 8 9 7 6 9 6 9 10 10 8 7 10 9 13 9 8 9 7 7 5 10 6 7 11 17 6 8 15 18 12 14 14 8 16 11 12 20 9 6 6
Height
5839 5835 5831 5828 5823 5817 5812 5806 5802 5797 5792 5787 5783 5780 5777 5775 5774 5772 5770 5769 5767 5767 5767 5767 5766 5767 5767 5767 5767 5767 5767 5767 5766 5766 5766 5766 5765 5766 5765 5765 5767 5768 5769 5772 5774
5839 5835 5831 5828 5823 5819 5814 5809 5803 5798 5792 5787 5783 5779 5776 5774 5773 5771 5769 5766 5764 5764 5765 5765 5765 5764 5765 5765 5764 5764 5764 5764 5763 5761 5761 5761 5761 5760 5761 5760 5761 5762 5763 5765 5766
5838 5835 5831 5827 5824 5819 5814 5810 5805 5800 5794 5788 5784 5779 5776 5773 5773 5770 5767 5765 5764 5762 5762 5762 5763 5763 5763 5763 5762 5761 5761 5761 5760 5758 5758 5758 5757 5756 5756 5756 5755 5755 5756 5758 5759
5837 5834 5830 5827 5823 5819 5815 5811 5806 5801 5795 5790 5785 5780 5776 5773 5773 5769 5767 5766 5765 5764 5764 5762 5762 5761 5761 5761 5760 5760 5758 5757 5756 5755 5754 5753 5752 5752 5751 5751 5751 5751 5751 5750 5752
5837 5833 5829 5826 5823 5819 5815 5811 5807 5802 5798 5792 5788 5782 5778 5775 5772 5769 5769 5768 5766 5764 5763 5762 5762 5761 5760 5759 5758 5757 5756 5755 5754 5753 5751 5750 5748 5748 5748 5747 5746 5746 5746 5746 5745
5836 5832 5828 5825 5822 5819 5816 5812 5808 5803 5799 5794 5790 5785 5780 5777 5773 5770 5768 5767 5766 5766 5762 5760 5759 5759 5758 5758 5757 5755 5754 5753 5752 5750 5749 5748 5747 5745 5744 5743 5743 5742 5742 5742 5742
5835 5831 5828 5824 5821 5818 5816 5812 5808 5803 5800 5796 5792 5787 5783 5780 5774 5771 5769 5767 5766 5764 5763 5760 5759 5758 5755 5754 5754 5753 5752 5750 5749 5748 5746 5746 5745 5743 5741 5740 5739 5739 5738 5738 5738
5834 5830 5827 5823 5820 5817 5814 5811 5808 5804 5800 5796 5793 5788 5783 5780 5775 5771 5769 5767 5764 5762 5761 5759 5757 5757 5755 5754 5752 5750 5749 5748 5746 5744 5743 5743 5742 5740 5739 5737 5736 5735 5734 5733 5732
5832 5829 5826 5822 5819 5815 5812 5810 5807 5803 5799 5795 5793 5789 5784 5780 5777 5773 5768 5766 5764 5761 5759 5757 5756 5754 5753 5752 5750 5748 5746 5745 5743 5742 5740 5739 5736 5735 5734 5733 5731 5729 5728 5727 5725
5830 5827 5824 5820 5817 5814 5810 5808 5805 5802 5797 5794 5791 5790 5785 5781 5776 5773 5769 5765 5762 5760 5757 5755 5752 5751 5749 5747 5746 5745 5743 5741 5741 5739 5735 5734 5732 5730 5728 5726 5724 5723 5721 5719 5718
5827 5825 5822 5818 5816 5812 5809 5805 5805 5801 5796 5793 5790 5786 5784 5780 5775 5772 5769 5765 5762 5758 5754 5751 5750 5747 5746 5744 5742 5741 5739 5738 5735 5733 5732 5730 5728 5725 5722 5720 5718 5716 5714 5711 5709
5825 5822 5819 5817 5813 5811 5807 5804 5801 5798 5795 5791 5788 5784 5781 5779 5774 5770 5767 5765 5761 5756 5753 5750 5747 5745 5743 5741 5738 5737 5734 5733 5731 5728 5727 5724 5722 5719 5717 5714 5711 5709 5706 5704 5702
5823 5819 5817 5814 5811 5808 5805 5801 5798 5795 5792 5789 5785 5782 5779 5777 5773 5768 5765 5761 5758 5755 5751 5747 5745 5742 5739 5737 5735 5732 5730 5727 5726 5724 5720 5717 5716 5713 5711 5707 5704 5701 5698 5696 5694
5820 5817 5813 5811 5809 5804 5802 5799 5795 5791 5789 5787 5784 5780 5777 5773 5770 5765 5761 5759 5755 5752 5749 5746 5741 5738 5735 5732 5730 5727 5723 5721 5719 5717 5714 5711 5709 5706 5703 5700 5697 5694 5690 5687 5685
5816 5814 5811 5806 5804 5801 5799 5795 5791 5788 5786 5784 5780 5777 5773 5771 5768 5764 5759 5755 5751 5749 5747 5743 5738 5734 5730 5727 5724 5721 5717 5714 5711 5709 5707 5704 5701 5698 5695 5692 5689 5686 5682 5678 5674
5812 5810 5806 5804 5800 5797 5794 5792 5789 5787 5782 5779 5776 5773 5769 5765 5762 5759 5755 5751 5747 5744 5741 5738 5733 5730 5725 5721 5718 5715 5711 5706 5703 5701 5699 5697 5694 5693 5688 5685 5680 5677 5673 5670 5667
5808 5805 5803 5800 5797 5793 5790 5789 5787 5782 5779 5776 5771 5768 5764 5760 5756 5753 5749 5745 5741 5738 5736 5732 5728 5723 5719 5716 5712 5708 5704 5699 5697 5695 5692 5690 5686 5685 5681 5677 5675 5671 5668 5665 5662
5803 5801 5798 5796 5792 5789 5786 5784 5781 5777 5773 5769 5766 5763 5760 5754 5752 5748 5744 5741 5736 5731 5729 5727 5722 5718 5713 5709 5705 5701 5697 5693 5688 5686 5683 5682 5679 5678 5674 5670 5669 5664 5661 5657 5654
5798 5795 5793 5792 5788 5784 5782 5779 5775 5772 5769 5764 5761 5757 5755 5751 5747 5745 5741 5736 5731 5728 5724 5719 5718 5712 5707 5703 5698 5694 5691 5686 5682 5679 5675 5672 5673 5671 5667 5665 5662 5658 5653 5649 5645
5793 5790 5787 5785 5783 5779 5776 5773 5770 5766 5763 5759 5755 5753 5749 5746 5742 5738 5736 5731 5727 5722 5718 5713 5710 5706 5701 5695 5691 5688 5684 5679 5674 5670 5666 5664 5664 5662 5659 5656 5655 5652 5648 5643 5640
5785 5784 5782 5779 5776 5774 5770 5766 5763 5759 5755 5753 5749 5747 5743 5739 5735 5732 5729 5724 5720 5715 5712 5707 5703 5700 5695 5688 5683 5680 5676 5672 5667 5664 5659 5657 5659 5655 5652 5650 5647 5646 5642 5638 5634
5778 5777 5775 5772 5770 5766 5764 5760 5756 5753 5749 5746 5743 5739 5736 5731 5728 5724 5721 5718 5714 5709 5704 5701 5697 5692 5689 5682 5676 5672 5670 5665 5659 5657 5651 5649 5651 5649 5644 5641 5639 5638 5635 5631 5627
5769 5768 5766 5764 5761 5759 5756 5753 5749 5746 5743 5739 5736 5731 5728 5725 5721 5717 5713 5711 5706 5702 5696 5692 5690 5684 5682 5675 5668 5665 5661 5656 5651 5646 5645 5639 5643 5642 5636 5632 5631 5630 5628 5624 5620
5762 5759 5758 5755 5753 5751 5748 5745 5741 5738 5735 5732 5729 5724 5721 5717 5712 5710 5706 5703 5698 5693 5688 5682 5681 5675 5672 5665 5660 5657 5651 5646 5641 5636 5635 5631 5631 5637 5629 5624 5626 5623 5621 5619 5615
5754 5752 5749 5747 5744 5742 5740 5736 5732 5730 5728 5724 5721 5716 5712 5709 5705 5701 5697 5694 5688 5683 5679 5675 5672 5666 5661 5654 5651 5648 5641 5636 5632 5631 5623 5626 5622 5621 5623 5620 5617 5616 5614 5613 5610
5745 5744 5741 5738 5736 5733 5731 5728 5725 5722 5720 5716 5711 5708 5705 5701 5698 5693 5689 5685 5683 5675 5667 5662 5660 5657 5652 5645 5640 5637 5630 5625 5623 5620 5618 5615 5613 5613 5612 5611 5609 5608 5608 5607 5604
5735 5734 5732 5729 5727 5724 5722 5717 5714 5713 5711 5706 5702 5698 5695 5692 5689 5685 5681 5676 5672 5666 5659 5653 5648 5644 5642 5635 5630 5627 5623 5617 5613 5610 5608 5605 5605 5606 5604 5602 5602 5601 5601 5601 5599